Skip to main content Skip to accessibility
This website is not compatible with your web browser. You should install a newer browser. If you live in Jersey and need help upgrading call the States of Jersey web team on 440099.
Homegov.je

Information and public services for the Island of Jersey

L'înformâtion et les sèrvices publyis pouor I'Île dé Jèrri

  • Choose the service you want to log in to:

  • gov.je

    Update your notification preferences

  • one.gov.je

    Access government services

  • CAESAR

    Clear goods through customs or claim relief

  • Talentlink

    View or update your States of Jersey job application

Local METARs

METAR EGJJ 090650Z AUTO 04008KT 9999 NCD 15/07 Q1022

METAR EGJB 090650Z 04006KT 8000 NSC 12/08 Q1022

METAR LFRD 090700Z AUTO 00000KT 2300 BR NSC 11/11 Q1022

METAR LFRC 090700Z AUTO 02004KT 330V070 5000 BR NSC 13/09 Q1023

 

 

 

​Apologies to the disruption to normal service. Commercial Aviation Services are available from the Jersey Met Forecaster 01534 448765.

Times are in Greenwich Mean Time (GMT) and not British Summer Time (BST). They will be one hour different during BST.

Back to top
rating button